View from above orbital plane
|
View from above satellite
|
Ground track
|
The orbit data is extracted from the following two-line orbital elements,
1 22590U 93020A 21023.61713959 .00000035 00000-0 20703-4 0 9995
2 22590 82.9327 164.0886 0023629 36.6462 334.1620 13.75416144395881
Epoch (UTC): | 23 January 2021 14:48:40 |
Eccentricity: | 0.0023629 |
inclination: | 82.9327° |
perigee height: | 963 km |
apogee height: | 997 km |
right ascension of ascending node: | 164.0886° |
argument of perigee: | 36.6462° |
revolutions per day: | 13.75416144 |
mean anomaly at epoch: | 334.1620° |
orbit number at epoch: | 39588 |
The dashed part of the orbit path shows where the satellite is in the earth's shadow,
|
|